FW6296 Weather Reports


Display with metric or nautical units.
time (UTC)temp
F
wind
direction
speed
MPH
gust
MPH
rain 1hr
in
rain 24hr
in
rain mn
in
humidity
%
barometer
mb
20260903213518 95 19 0.0 3.0 0.00 0.00 0.00 55 1013.1
20260903212518 96 155 0.0 4.0 0.00 0.00 0.00 54 1013.2
20260903211518 96 93 0.0 3.0 0.00 0.00 0.00 53 1013.1
20260903210516 96 70 1.0 4.0 0.00 0.00 0.00 52 1013.2
20260903205516 96 22 0.0 4.0 0.00 0.00 0.00 51 1013.3
20260903204516 96 342 0.0 2.0 0.00 0.00 0.00 51 1013.4
20260903203516 94 327 0.0 3.0 0.00 0.00 0.00 52 1013.5
20260903202516 93 79 1.0 3.0 0.00 0.00 0.00 54 1013.5
20260903201517 93 90 4.0 7.0 0.00 0.00 0.00 55 1013.5
20260903200516 93 81 1.0 3.0 0.00 0.00 0.00 54 1013.6
20260903195517 93 89 3.0 6.0 0.00 0.00 0.00 56 1013.7
20260903194517 93 98 1.0 6.0 0.00 0.00 0.00 55 1013.9
20260903193517 92 89 1.0 4.0 0.00 0.00 0.00 56 1014.0
20260903192518 92 83 2.0 6.0 0.00 0.00 0.00 57 1014.1
20260903191518 92 90 3.0 6.0 0.00 0.00 0.00 57 1014.2
20260903190518 92 89 1.0 4.0 0.00 0.00 0.00 57 1014.3
20260903185518 91 84 2.0 6.0 0.00 0.00 0.00 57 1014.4
20260903184518 91 90 3.0 7.0 0.00 0.00 0.00 58 1014.5
20260903183518 91 73 3.0 7.0 0.00 0.00 0.00 58 1014.5
20260903182517 91 54 2.0 5.0 0.00 0.00 0.00 58 1014.6
20260903181516 91 83 4.0 10.0 0.00 0.00 0.00 58 1014.6
20260903180517 91 40 2.0 5.0 0.00 0.00 0.00 59 1014.6
20260903175516 92 20 3.0 6.0 0.00 0.00 0.00 59 1014.8
20260903174516 92 75 2.0 5.0 0.00 0.00 0.00 58 1014.8
20260903173517 91 346 1.0 5.0 0.00 0.00 0.00 58 1014.8
20260903172517 91 326 2.0 6.0 0.00 0.00 0.00 58 1014.8
20260903171516 91 313 2.0 5.0 0.00 0.00 0.00 59 1014.9
20260903170517 91 331 3.0 10.0 0.00 0.00 0.00 58 1014.9
20260903165517 91 315 2.0 5.0 0.00 0.00 0.00 57 1014.8
20260903164517 92 295 2.0 5.0 0.00 0.00 0.00 58 1014.6
20260903163517 92 278 2.0 5.0 0.00 0.00 0.00 59 1014.4
20260903162517 91 281 1.0 4.0 0.00 0.00 0.00 59 1014.4
20260903161518 91 274 2.0 4.0 0.00 0.00 0.00 59 1014.3
20260903160517 90 285 1.0 4.0 0.00 0.00 0.00 61 1014.3
20260903155518 89 269 1.0 5.0 0.00 0.00 0.00 62 1014.3
20260903154518 89 272 2.0 6.0 0.00 0.00 0.00 62 1014.3
20260903153535 88 273 1.0 7.0 0.00 0.00 0.00 63 1014.3
20260903152516 88 270 2.0 5.0 0.00 0.00 0.00 63 1014.3
20260903151517 88 265 2.0 6.0 0.00 0.00 0.00 63 1014.4
20260903150517 87 271 2.0 6.0 0.00 0.00 0.00 64 1014.4
20260903145516 87 259 2.0 5.0 0.00 0.00 0.00 65 1014.4
20260903144536 86 262 2.0 6.0 0.00 0.00 0.00 66 1014.5
20260903143516 85 275 3.0 6.0 0.00 0.00 0.00 67 1014.4
20260903142517 85 272 3.0 6.0 0.00 0.00 0.00 68 1014.3
20260903141516 84 259 2.0 6.0 0.00 0.00 0.00 71 1014.3
20260903140517 84 255 2.0 7.0 0.00 0.00 0.00 71 1014.3
20260903135517 83 257 1.0 4.0 0.00 0.00 0.00 71 1014.3
20260903134517 83 265 2.0 6.0 0.00 0.00 0.00 72 1014.3
20260903133518 82 262 2.0 4.0 0.00 0.00 0.00 72 1014.3
20260903132517 81 258 0.0 3.0 0.00 0.00 0.00 74 1014.3
20260903131520 81 244 1.0 4.0 0.00 0.00 0.00 75 1014.4
20260903130518 80 239 0.0 3.0 0.00 0.00 0.00 76 1014.6
20260903125518 79 219 0.0 2.0 0.00 0.00 0.00 78 1014.6
20260903124518 77 228 0.0 4.0 0.00 0.00 0.00 80 1014.6
20260903123516 77 237 0.0 2.0 0.00 0.00 0.00 81 1014.6
20260903122515 76 246 0.0 2.0 0.00 0.00 0.00 83 1014.6
20260903121516 75 0.0 0.0 0.00 0.00 0.00 83 1014.5
20260903120536 75 0.0 0.0 0.00 0.00 0.00 84 1014.5
20260903115518 75 0.0 0.0 0.00 0.00 0.00 84 1014.5
20260903114516 75 0.0 0.0 0.00 0.00 0.00 84 1014.5
20260903113516 75 0.0 0.0 0.00 0.00 0.00 84 1014.5
20260903112537 75 0.0 0.0 0.00 0.00 0.00 83 1014.3
20260903111516 76 0.0 0.0 0.00 0.00 0.00 83 1014.3
20260903110518 76 0.0 0.0 0.00 0.00 0.00 82 1014.4
20260903105517 76 0.0 0.0 0.00 0.00 0.00 82 1014.3
20260903104517 76 0.0 0.0 0.00 0.00 0.00 82 1014.3
20260903103517 77 284 0.0 1.0 0.00 0.00 0.00 81 1014.3
20260903102558 77 209 0.0 5.0 0.00 0.00 0.00 80 1014.3
20260903101518 77 231 0.0 3.0 0.00 0.00 0.00 80 1014.3
20260903100518 77 203 0.0 2.0 0.00 0.00 0.00 80 1014.3
20260903095518 77 227 0.0 2.0 0.00 0.00 0.00 80 1014.3
20260903094518 77 246 0.0 1.0 0.00 0.00 0.00 80 1014.2
20260903093515 77 240 0.0 2.0 0.00 0.00 0.00 80 1014.2
20260903092515 77 191 0.0 2.0 0.00 0.00 0.00 81 1014.2
20260903091516 76 280 0.0 2.0 0.00 0.00 0.00 84 1014.1
20260903090516 76 0.0 0.0 0.00 0.00 0.00 85 1014.0
20260903085516 77 0.0 0.0 0.00 0.00 0.00 84 1014.0
20260903084516 77 0.0 0.0 0.00 0.00 0.00 83 1014.0
20260903083516 78 0.0 0.0 0.00 0.00 0.00 82 1014.0
20260903082516 78 79 0.0 1.0 0.00 0.00 0.00 81 1014.0
20260903081517 78 229 0.0 1.0 0.00 0.00 0.00 81 1014.0
20260903080517 79 143 0.0 2.0 0.00 0.00 0.00 80 1014.0
20260903075518 78 239 0.0 3.0 0.00 0.00 0.00 80 1014.0
20260903074517 78 235 1.0 3.0 0.00 0.00 0.00 82 1013.9
20260903073517 77 0.0 0.0 0.00 0.00 0.00 84 1014.0
20260903072517 77 0.0 0.0 0.00 0.00 0.00 85 1014.0
20260903071518 77 0.0 0.0 0.00 0.00 0.00 85 1014.0
20260903070518 77 0.0 0.0 0.00 0.00 0.00 85 1014.0
20260903065518 77 0.0 0.0 0.00 0.00 0.00 85 1013.9
20260903064515 77 0.0 0.0 0.00 0.00 0.00 85 1014.0
20260903063516 78 0.0 0.0 0.00 0.00 0.00 84 1014.0
20260903062535 78 0.0 0.0 0.00 0.00 0.00 84 1014.0
20260903061516 78 0.0 0.0 0.00 0.00 0.00 84 1014.0
20260903060516 78 234 0.0 2.0 0.00 0.00 0.00 83 1014.0
20260903055516 78 0.0 0.0 0.00 0.00 0.00 83 1014.0
20260903054557 79 0.0 0.0 0.00 0.00 0.00 82 1014.0
20260903053517 79 0.0 0.0 0.00 0.00 0.00 81 1014.0
20260903052537 80 0.0 0.0 0.00 0.00 0.00 80 1014.0
20260903051557 80 235 0.0 3.0 0.00 0.00 0.00 80 1013.9
20260903050517 80 226 0.0 3.0 0.00 0.00 0.00 79 1013.8
20260903045517 80 234 0.0 2.0 0.00 0.00 0.00 79 1013.9
20260903044517 81 227 0.0 3.0 0.00 0.00 0.00 79 1013.9
20260903043518 81 235 0.0 2.0 0.00 0.00 0.00 78 1013.8
20260903042538 81 223 0.0 3.0 0.00 0.00 0.00 78 1013.8
20260903041518 81 233 0.0 3.0 0.00 0.00 0.00 77 1013.8
20260903040518 81 219 1.0 4.0 0.00 0.00 0.00 77 1013.7
20260903035536 81 228 1.0 4.0 0.00 0.00 0.00 78 1013.7
20260903034515 81 240 1.0 5.0 0.00 0.00 0.00 78 1013.7
20260903033516 81 231 1.0 3.0 0.00 0.00 0.00 79 1013.7
20260903032516 82 222 1.0 3.0 0.00 0.00 0.00 79 1013.7
20260903031516 82 222 0.0 3.0 0.00 0.00 0.00 78 1013.8
20260903030517 82 222 0.0 2.0 0.00 0.00 0.00 77 1013.8
20260903025516 83 223 1.0 3.0 0.00 0.00 0.00 77 1013.7
20260903024537 83 238 1.0 3.0 0.00 0.00 0.00 76 1013.8
20260903023517 83 186 0.0 2.0 0.00 0.00 0.00 76 1013.8
20260903022517 83 192 0.0 3.0 0.00 0.00 0.00 76 1013.7
20260903021537 83 228 0.0 3.0 0.00 0.00 0.00 75 1013.6
20260903020517 84 220 0.0 3.0 0.00 0.00 0.00 75 1013.6
20260903015557 84 223 1.0 4.0 0.00 0.00 0.00 73 1013.5
20260903014517 85 237 0.0 2.0 0.00 0.00 0.00 72 1013.5
20260903013518 85 166 0.0 3.0 0.00 0.00 0.00 71 1013.5
20260903012518 86 222 1.0 3.0 0.00 0.00 0.00 70 1013.4
20260903011518 86 208 0.0 3.0 0.00 0.00 0.00 70 1013.3
20260903010539 86 238 1.0 5.0 0.00 0.00 0.00 71 1013.2
20260903005515 87 237 1.0 3.0 0.00 0.00 0.00 70 1013.1
20260903004516 87 256 1.0 3.0 0.00 0.00 0.00 69 1013.1
20260903003516 87 233 1.0 4.0 0.00 0.00 0.00 68 1013.1
20260903002516 88 93 1.0 4.0 0.00 0.00 0.00 68 1013.1
20260903001516 89 247 0.0 3.0 0.00 0.00 0.00 67 1013.1
20260903000518 89 234 0.0 3.0 0.00 0.00 0.00 66 1013.1
20260902235516 90 212 1.0 4.0 0.00 0.00 0.00 63 1013.2
20260902234516 91 222 1.0 4.0 0.00 0.00 0.00 60 1013.2
20260902233517 92 224 1.0 4.0 0.00 0.00 0.00 58 1013.3
20260902232517 92 245 1.0 4.0 0.00 0.00 0.00 58 1013.3
20260902231518 92 284 1.0 4.0 0.00 0.00 0.00 59 1013.4
20260902230517 93 279 2.0 5.0 0.00 0.00 0.00 58 1013.4
20260902225518 94 263 1.0 4.0 0.00 0.00 0.00 56 1013.3
20260902224538 95 270 1.0 5.0 0.00 0.00 0.00 54 1013.4
20260902223518 95 250 1.0 4.0 0.00 0.00 0.00 53 1013.4
20260902222519 94 262 2.0 6.0 0.00 0.00 0.00 53 1013.5
20260902221515 95 268 2.0 5.0 0.00 0.00 0.00 52 1013.4
20260902220515 95 271 1.0 4.0 0.00 0.00 0.00 54 1013.5
20260902215516 94 273 2.0 5.0 0.00 0.00 0.00 55 1013.5
20260902214516 94 280 1.0 4.0 0.00 0.00 0.00 55 1013.6